Location: Kershaw
(34.5481°N, 80.5823°W)
Time: 13:45:43
(UTC+00:00)

Explorer 7 - Pass Details

Date: 08 October 2022
Orbit: 481 x 665 km, 50.3° (Epoch: 26 November)

Event Time Altitude Azimuth Distance (km) Brightness Sun altitude
Rises 18:10:16 0° 316° (NW) 2,992 10.4 46.9°
Reaches altitude 10° 18:13:35 10° 339° (NNW) 2,059 9.5 46.7°
Maximum altitude 18:16:23 15° 16° (NNE) 1,706 9.1 46.4°
Drops below altitude 10° 18:19:08 10° 52° (NE) 2,007 9.4 46.2°
Sets 18:22:17 0° 76° (ENE) 2,873 10.2 45.9°
